Weather History for Cozumel, Mexico

Change the Weather History Date:

Friday, November 8, 2013

  Actual Average Record
Temperature  
Mean Temperature 74 °F -  
Max Temperature 78 °F 84 °F 87 °F (1996)
Min Temperature 71 °F 74 °F 55 °F (2010)
Cooling Degree Days 10    
Growing Degree Days 24 (Base 50)    
Moisture  
Dew Point 70 °F    
Average Humidity 85    
Maximum Humidity 100    
Minimum Humidity 69    
Precipitation  
Precipitation 0.00 in - - ()
Sea Level Pressure  
Sea Level Pressure 29.94 in    
Wind  
Wind Speed 8 mph ()    
Max Wind Speed 17 mph    
Max Gust Speed 23 mph    
Visibility 6.9 miles    
Events Rain    
Averages and records for this station are not official NWS values.
T = Trace of Precipitation, MM = Missing Value Source: Averaged Metar Reports

Daily Weather History Graph

Daily Weather History Graph

Search for Another Location

Airport:

Trip Planner

Search our weather history database for the weather conditions in past years. The results will help you decide how hot, cold, wet, or windy it might be!

Date:

Astronomy

Nov. 08, 2013 Rise Set
Actual Time 5:53 AM CST 5:09 PM CST
Civil Twilight 5:30 AM CST 5:32 PM CST
Nautical Twilight 5:03 AM CST 5:58 PM CST
Astronomical Twilight 4:37 AM CST 6:24 PM CST
Moon 10:48 AM CST (11/8) 10:26 PM CST (11/8)
Length of Visible Light 12h 01m
Length of Day
11h 15m
Waxing Crescent, 33% of the Moon is Illuminated
Nov 8
Waxing Crescent
Nov 9
First Quarter
Nov 17
Full
Nov 25
Last Quarter
Dec 2
New

Hourly Weather History & Observations

Time (CST) Temp. Dew Point Humidity Pressure Visibility Wind Dir Wind Speed Gust Speed Precip Events Conditions
12:46 AM 71.6 °F 71.6 °F 100% 29.91 in 5.0 mi East 5.8 mph - N/A   Overcast
1:59 AM 73.4 °F 71.6 °F 94% 29.91 in 5.0 mi ENE 5.8 mph - N/A Rain Light Rain
2:48 AM 73.4 °F 71.6 °F 94% 29.93 in 5.0 mi NE 11.5 mph - N/A   Overcast
3:45 AM 73.4 °F 71.6 °F 94% 29.91 in 5.0 mi ENE 13.8 mph - N/A   Overcast
4:40 AM 75.2 °F 71.6 °F 89% 29.91 in 6.0 mi ENE 13.8 mph - N/A   Overcast
5:45 AM 73.4 °F 69.8 °F 88% 29.91 in 6.0 mi ENE 11.5 mph 23.0 mph N/A   Mostly Cloudy
6:42 AM 75.2 °F 69.8 °F 83% 29.95 in 6.0 mi ENE 13.8 mph - N/A   Overcast
7:41 AM 75.2 °F 69.8 °F 83% 29.97 in 7.0 mi ENE 13.8 mph - N/A   Overcast
8:42 AM 77.0 °F 69.8 °F 78% 30.01 in 7.0 mi ENE 13.8 mph - N/A   Overcast
9:46 AM 78.8 °F 71.6 °F 78% 29.98 in 7.0 mi NE 17.3 mph - N/A   Mostly Cloudy
10:40 AM 78.8 °F 69.8 °F 74% 29.98 in 8.0 mi ENE 5.8 mph - N/A   Mostly Cloudy
11:43 AM 78.8 °F 68.0 °F 69% 29.94 in 8.0 mi ENE 10.4 mph - N/A   Mostly Cloudy
12:44 PM 78.8 °F 69.8 °F 74% 29.93 in 8.0 mi NE 11.5 mph - N/A   Mostly Cloudy
1:47 PM 78.8 °F 69.8 °F 74% 29.92 in 8.0 mi East 11.5 mph - N/A   Mostly Cloudy
2:43 PM 78.8 °F 69.8 °F 74% 29.94 in 8.0 mi ENE 9.2 mph - N/A   Overcast
3:52 PM 75.2 °F 69.8 °F 83% 29.91 in 8.0 mi ENE 3.5 mph - N/A   Mostly Cloudy
4:44 PM 75.2 °F 69.8 °F 83% 29.91 in 8.0 mi ENE 3.5 mph - N/A   Mostly Cloudy
5:42 PM 73.4 °F 69.8 °F 88% 29.91 in 8.0 mi Calm Calm - N/A   Mostly Cloudy
6:42 PM 73.4 °F 69.8 °F 88% 29.94 in 7.0 mi Calm Calm - N/A   Scattered Clouds
7:40 PM 73.4 °F 69.8 °F 88% 29.94 in 7.0 mi ENE 4.6 mph - N/A   Scattered Clouds
8:42 PM 75.2 °F 69.8 °F 83% 29.97 in 7.0 mi East 3.5 mph - N/A   Scattered Clouds
9:40 PM 73.4 °F 69.8 °F 88% 29.96 in 7.0 mi East 4.6 mph - N/A   Scattered Clouds
10:40 PM 71.6 °F 69.8 °F 94% 29.96 in 7.0 mi East 3.5 mph - N/A   Scattered Clouds
11:40 PM 71.6 °F 69.8 °F 94% 29.92 in 7.0 mi ENE 3.5 mph - N/A   Mostly Cloudy